Time,TemperatureF,DewpointF,PressureIn,WindDirection,WindDirectionDegrees,WindSpeedMPH,WindSpeedGustMPH,Humidity,HourlyPrecipIn,Conditions,Clouds,dailyrainin,SoftwareType,DateUTC
2013-05-09 00:03:00,58.6,54.8,30.03,NE,45,3.1,3.1,87,0.00,,---,0.00,VWS V14.01,2013-05-09 05:03:00,
2013-05-09 00:08:00,58.6,54.8,30.03,NE,45,0.0,2.0,87,0.00,,---,0.00,VWS V14.01,2013-05-09 05:08:00,
2013-05-09 00:14:00,58.6,54.8,30.03,NE,45,1.6,2.0,87,0.00,,---,0.00,VWS V14.01,2013-05-09 05:14:00,
2013-05-09 00:20:00,58.6,54.8,30.03,NE,45,2.0,2.0,87,0.00,,---,0.00,VWS V14.01,2013-05-09 05:20:00,
2013-05-09 00:25:00,58.6,55.1,30.03,North,0,2.9,5.4,88,0.00,,---,0.00,VWS V14.01,2013-05-09 05:25:00,
2013-05-09 00:30:00,58.6,55.4,30.03,NNE,22,1.1,3.4,89,0.00,,---,0.00,VWS V14.01,2013-05-09 05:30:00,
2013-05-09 00:35:00,58.6,55.1,30.03,NE,45,1.3,2.9,88,0.00,,---,0.00,VWS V14.01,2013-05-09 05:35:00,
2013-05-09 00:41:00,58.6,55.1,30.03,NNE,22,2.7,4.3,88,0.00,,---,0.00,VWS V14.01,2013-05-09 05:41:00,
2013-05-09 00:46:00,58.5,55.2,30.03,ENE,68,0.9,4.3,89,0.00,,---,0.00,VWS V14.01,2013-05-09 05:46:00,
2013-05-09 00:51:00,58.5,55.2,30.03,NE,45,1.3,4.0,89,0.00,,---,0.00,VWS V14.01,2013-05-09 05:51:00,
2013-05-09 00:56:00,58.5,55.2,30.00,NNE,22,0.9,2.2,89,0.00,,---,0.00,VWS V14.01,2013-05-09 05:56:00,
2013-05-09 01:01:00,58.5,54.9,30.00,NE,45,2.0,2.7,88,0.00,,---,0.00,VWS V14.01,2013-05-09 06:01:00,
2013-05-09 01:06:00,58.5,54.9,30.00,NE,45,0.0,2.9,88,0.00,,---,0.00,VWS V14.01,2013-05-09 06:06:00,
2013-05-09 01:12:00,58.3,55.1,30.00,NNW,338,6.0,6.0,89,0.00,,---,0.00,VWS V14.01,2013-05-09 06:12:00,
2013-05-09 01:17:00,58.3,54.8,30.00,NNE,22,0.0,1.6,88,0.00,,---,0.00,VWS V14.01,2013-05-09 06:17:00,
2013-05-09 01:23:00,58.3,55.1,30.00,NNE,22,2.0,2.2,89,0.00,,---,0.00,VWS V14.01,2013-05-09 06:23:00,
2013-05-09 01:28:00,58.1,54.6,30.00,NE,45,2.5,2.7,88,0.00,,---,0.00,VWS V14.01,2013-05-09 06:28:00,
2013-05-09 01:34:00,58.1,54.6,30.00,NNE,22,1.3,1.3,88,0.00,,---,0.00,VWS V14.01,2013-05-09 06:34:00,
2013-05-09 01:40:00,58.1,54.6,30.00,NNW,338,2.2,2.2,88,0.00,,---,0.00,VWS V14.01,2013-05-09 06:40:00,
2013-05-09 01:45:00,58.1,54.6,30.00,NE,45,0.0,2.5,88,0.00,,---,0.00,VWS V14.01,2013-05-09 06:45:00,
2013-05-09 01:51:00,58.1,54.6,30.00,NNE,22,0.9,3.6,88,0.00,,---,0.00,VWS V14.01,2013-05-09 06:51:00,
2013-05-09 01:57:00,58.1,54.6,30.00,ENE,68,2.2,2.9,88,0.00,,---,0.00,VWS V14.01,2013-05-09 06:57:00,
2013-05-09 02:02:00,58.1,54.6,30.00,ENE,68,2.7,2.7,88,0.00,,---,0.00,VWS V14.01,2013-05-09 07:02:00,
2013-05-09 02:07:00,58.1,54.6,30.00,ESE,112,0.0,3.6,88,0.00,,---,0.00,VWS V14.01,2013-05-09 07:07:00,
2013-05-09 02:13:00,57.9,54.4,30.00,NNE,22,1.1,2.0,88,0.00,,---,0.00,VWS V14.01,2013-05-09 07:13:00,
2013-05-09 02:18:00,57.9,54.4,30.00,NNE,22,1.6,3.6,88,0.00,,---,0.00,VWS V14.01,2013-05-09 07:18:00,
2013-05-09 02:24:00,57.9,54.4,30.00,North,0,2.5,2.9,88,0.00,,---,0.00,VWS V14.01,2013-05-09 07:24:00,
2013-05-09 02:29:00,57.9,54.4,30.00,North,0,2.7,3.8,88,0.00,,---,0.00,VWS V14.01,2013-05-09 07:29:00,
2013-05-09 02:35:00,57.9,54.1,30.00,ENE,68,0.0,1.1,87,0.00,,---,0.00,VWS V14.01,2013-05-09 07:35:00,
2013-05-09 02:40:00,57.9,54.1,30.00,ENE,68,2.7,2.7,87,0.00,,---,0.00,VWS V14.01,2013-05-09 07:40:00,
2013-05-09 02:46:00,57.9,54.1,30.00,NE,45,1.6,2.9,87,0.00,,---,0.00,VWS V14.01,2013-05-09 07:46:00,
2013-05-09 02:51:00,57.9,53.8,30.00,NNE,22,2.7,4.3,86,0.00,,---,0.00,VWS V14.01,2013-05-09 07:51:00,
2013-05-09 02:56:00,57.9,53.8,30.00,NE,45,2.5,2.7,86,0.00,,---,0.00,VWS V14.01,2013-05-09 07:56:00,
2013-05-09 03:01:00,57.9,53.8,30.00,NNE,22,3.1,5.6,86,0.00,,---,0.00,VWS V14.01,2013-05-09 08:01:00,
2013-05-09 03:07:00,57.9,53.8,30.00,NE,45,1.6,4.3,86,0.00,,---,0.00,VWS V14.01,2013-05-09 08:07:00,
2013-05-09 03:12:00,57.9,53.8,30.00,NNW,338,3.6,3.6,86,0.00,,---,0.00,VWS V14.01,2013-05-09 08:12:00,
2013-05-09 03:19:00,57.7,53.6,30.00,ENE,68,3.1,3.4,86,0.00,,---,0.00,VWS V14.01,2013-05-09 08:19:00,
2013-05-09 03:24:00,57.7,53.6,30.00,NE,45,2.7,2.7,86,0.00,,---,0.00,VWS V14.01,2013-05-09 08:24:00,
2013-05-09 03:30:00,57.6,53.4,30.00,NNE,22,2.5,2.9,86,0.00,,---,0.00,VWS V14.01,2013-05-09 08:30:00,
2013-05-09 03:36:00,57.6,53.4,30.00,East,90,2.7,3.4,86,0.00,,---,0.00,VWS V14.01,2013-05-09 08:36:00,
2013-05-09 03:41:00,57.6,53.4,30.00,NE,45,3.8,3.8,86,0.00,,---,0.00,VWS V14.01,2013-05-09 08:41:00,
2013-05-09 03:46:00,57.6,53.4,30.00,NE,45,2.9,2.9,86,0.00,,---,0.00,VWS V14.01,2013-05-09 08:46:00,
2013-05-09 03:51:00,57.6,53.4,30.00,NNW,338,3.6,3.8,86,0.00,,---,0.00,VWS V14.01,2013-05-09 08:51:00,
2013-05-09 03:56:00,57.4,53.2,29.97,North,0,1.1,2.2,86,0.00,,---,0.00,VWS V14.01,2013-05-09 08:56:00,
2013-05-09 04:02:00,57.4,53.2,29.97,NNW,338,2.9,3.1,86,0.00,,---,0.00,VWS V14.01,2013-05-09 09:02:00,
2013-05-09 04:07:00,57.4,53.5,29.97,ENE,68,0.0,1.3,87,0.00,,---,0.00,VWS V14.01,2013-05-09 09:07:00,
2013-05-09 04:12:00,57.4,53.5,30.00,NE,45,2.2,2.9,87,0.00,,---,0.00,VWS V14.01,2013-05-09 09:12:00,
2013-05-09 04:18:00,57.4,53.5,30.00,ENE,68,0.9,3.4,87,0.00,,---,0.00,VWS V14.01,2013-05-09 09:18:00,
2013-05-09 04:23:00,57.4,53.5,30.00,ENE,68,1.1,2.5,87,0.00,,---,0.00,VWS V14.01,2013-05-09 09:23:00,
2013-05-09 04:28:00,57.2,53.4,29.97,NNW,338,3.4,3.4,87,0.00,,---,0.00,VWS V14.01,2013-05-09 09:28:00,
2013-05-09 04:34:00,57.2,53.4,29.97,ENE,68,1.1,1.6,87,0.00,,---,0.00,VWS V14.01,2013-05-09 09:34:00,
2013-05-09 04:40:00,57.2,53.4,29.97,NE,45,2.9,2.9,87,0.00,,---,0.00,VWS V14.01,2013-05-09 09:40:00,
2013-05-09 04:45:00,57.2,53.1,30.00,East,90,1.3,1.3,86,0.00,,---,0.00,VWS V14.01,2013-05-09 09:45:00,
2013-05-09 04:50:00,57.4,53.2,30.00,NNE,22,2.0,2.0,86,0.00,,---,0.00,VWS V14.01,2013-05-09 09:50:00,
2013-05-09 04:56:00,57.4,53.5,29.97,NNE,22,3.8,3.8,87,0.00,,---,0.00,VWS V14.01,2013-05-09 09:56:00,
2013-05-09 05:01:00,57.6,53.4,29.97,East,90,1.6,2.7,86,0.00,,---,0.00,VWS V14.01,2013-05-09 10:01:00,
2013-05-09 05:06:00,57.6,53.4,29.97,North,0,1.6,1.6,86,0.00,,---,0.00,VWS V14.01,2013-05-09 10:06:00,
2013-05-09 05:11:00,57.6,53.4,29.97,ENE,68,2.0,3.4,86,0.00,,---,0.00,VWS V14.01,2013-05-09 10:11:00,
2013-05-09 05:18:00,57.6,53.1,29.97,ENE,68,2.2,3.4,85,0.00,,---,0.00,VWS V14.01,2013-05-09 10:18:00,
2013-05-09 05:23:00,57.6,53.1,29.97,North,0,2.7,2.7,85,0.00,,---,0.00,VWS V14.01,2013-05-09 10:23:00,
2013-05-09 05:29:00,57.6,53.1,29.97,SE,135,3.1,3.1,85,0.00,,---,0.00,VWS V14.01,2013-05-09 10:29:00,
2013-05-09 05:35:00,57.7,53.0,29.97,NE,45,2.0,2.7,84,0.00,,---,0.00,VWS V14.01,2013-05-09 10:35:00,
2013-05-09 05:40:00,57.7,53.0,29.97,NNE,22,1.6,3.6,84,0.00,,---,0.00,VWS V14.01,2013-05-09 10:40:00,
2013-05-09 05:45:00,57.7,53.0,29.97,ENE,68,1.3,2.0,84,0.00,,---,0.00,VWS V14.01,2013-05-09 10:45:00,
2013-05-09 05:50:00,57.7,53.0,29.97,ENE,68,1.6,2.7,84,0.00,,---,0.00,VWS V14.01,2013-05-09 10:50:00,
2013-05-09 05:55:00,57.7,53.0,29.97,NNW,338,0.0,2.2,84,0.00,,---,0.00,VWS V14.01,2013-05-09 10:55:00,
2013-05-09 06:00:00,57.7,53.0,29.97,NE,45,3.1,3.1,84,0.00,,---,0.00,VWS V14.01,2013-05-09 11:00:00,
2013-05-09 06:06:00,57.7,53.0,29.97,North,0,0.0,0.0,84,0.00,,---,0.00,VWS V14.01,2013-05-09 11:06:00,
2013-05-09 06:12:00,57.6,52.8,30.00,North,0,0.0,2.0,84,0.00,,---,0.00,VWS V14.01,2013-05-09 11:12:00,
2013-05-09 06:17:00,57.6,52.8,30.00,NNE,22,0.0,1.6,84,0.00,,---,0.00,VWS V14.01,2013-05-09 11:17:00,
2013-05-09 06:22:00,57.6,52.8,30.00,North,0,1.1,4.3,84,0.00,,---,0.00,VWS V14.01,2013-05-09 11:22:00,
2013-05-09 06:27:00,57.6,52.8,30.00,ENE,68,0.0,1.6,84,0.00,,---,0.00,VWS V14.01,2013-05-09 11:27:00,
2013-05-09 06:32:00,57.6,52.8,30.00,NE,45,0.0,0.0,84,0.00,,---,0.00,VWS V14.01,2013-05-09 11:32:00,
2013-05-09 06:38:00,57.6,52.8,30.00,ESE,112,2.7,2.7,84,0.00,,---,0.00,VWS V14.01,2013-05-09 11:38:00,
2013-05-09 06:43:00,57.6,52.8,30.00,NNE,22,0.0,2.2,84,0.00,,---,0.00,VWS V14.01,2013-05-09 11:43:00,
2013-05-09 06:49:00,57.6,52.8,30.00,NE,45,2.5,2.5,84,0.00,,---,0.00,VWS V14.01,2013-05-09 11:49:00,
2013-05-09 06:54:00,57.6,52.8,30.00,ENE,68,2.7,4.0,84,0.00,,---,0.00,VWS V14.01,2013-05-09 11:54:00,
2013-05-09 06:59:00,57.6,52.8,30.00,NNE,22,1.6,3.4,84,0.00,,---,0.00,VWS V14.01,2013-05-09 11:59:00,
2013-05-09 07:04:00,57.6,52.8,30.00,NNW,338,2.0,2.7,84,0.00,,---,0.00,VWS V14.01,2013-05-09 12:04:00,
2013-05-09 07:09:00,57.6,52.8,30.00,NE,45,2.0,2.0,84,0.00,,---,0.00,VWS V14.01,2013-05-09 12:09:00,
2013-05-09 07:15:00,57.6,52.8,30.00,ENE,68,0.0,0.0,84,0.00,,---,0.00,VWS V14.01,2013-05-09 12:15:00,
2013-05-09 07:20:00,57.6,52.8,30.00,NNE,22,0.0,2.2,84,0.00,,---,0.00,VWS V14.01,2013-05-09 12:20:00,
2013-05-09 07:26:00,57.6,52.8,30.00,East,90,1.3,2.7,84,0.00,,---,0.00,VWS V14.01,2013-05-09 12:26:00,
2013-05-09 07:31:00,57.6,52.8,30.00,East,90,0.0,2.7,84,0.00,,---,0.00,VWS V14.01,2013-05-09 12:31:00,
2013-05-09 07:36:00,57.6,52.8,30.00,ENE,68,0.0,0.0,84,0.00,,---,0.00,VWS V14.01,2013-05-09 12:36:00,
2013-05-09 07:41:00,57.6,52.8,30.00,NNE,22,2.5,2.5,84,0.00,,---,0.00,VWS V14.01,2013-05-09 12:41:00,
2013-05-09 07:47:00,57.6,52.8,30.00,NE,45,0.0,1.3,84,0.00,,---,0.00,VWS V14.01,2013-05-09 12:47:00,
2013-05-09 07:52:00,57.6,52.8,30.00,North,0,2.2,3.8,84,0.00,,---,0.00,VWS V14.01,2013-05-09 12:52:00,
2013-05-09 07:57:00,57.6,52.8,30.00,NE,45,0.0,0.0,84,0.00,,---,0.00,VWS V14.01,2013-05-09 12:57:00,
2013-05-09 08:03:00,57.6,52.8,30.00,ENE,68,1.3,1.3,84,0.00,,---,0.00,VWS V14.01,2013-05-09 13:03:00,
2013-05-09 08:08:00,57.6,52.8,30.00,NE,45,0.0,0.9,84,0.00,,---,0.00,VWS V14.01,2013-05-09 13:08:00,
2013-05-09 08:15:00,57.6,52.8,30.00,NNE,22,0.0,1.6,84,0.00,,---,0.00,VWS V14.01,2013-05-09 13:15:00,
2013-05-09 08:20:00,57.6,52.8,30.00,North,0,2.5,2.7,84,0.00,,---,0.00,VWS V14.01,2013-05-09 13:20:00,
2013-05-09 08:25:00,57.6,52.8,30.00,NNW,338,0.0,2.7,84,0.00,,---,0.00,VWS V14.01,2013-05-09 13:25:00,
2013-05-09 08:30:00,57.6,52.8,30.00,North,0,0.0,1.6,84,0.00,,---,0.00,VWS V14.01,2013-05-09 13:30:00,
2013-05-09 08:35:00,57.6,52.8,30.00,ENE,68,1.6,3.6,84,0.00,,---,0.00,VWS V14.01,2013-05-09 13:35:00,
2013-05-09 08:40:00,57.6,52.8,30.00,ENE,68,2.2,2.2,84,0.00,,---,0.00,VWS V14.01,2013-05-09 13:40:00,
2013-05-09 08:45:00,57.7,53.0,30.00,NNE,22,1.6,2.0,84,0.00,,---,0.00,VWS V14.01,2013-05-09 13:45:00,
2013-05-09 08:50:00,57.7,53.0,30.00,NNW,338,0.0,2.5,84,0.00,,---,0.00,VWS V14.01,2013-05-09 13:50:00,
2013-05-09 08:55:00,57.7,53.0,30.00,NNE,22,2.5,4.0,84,0.00,,---,0.00,VWS V14.01,2013-05-09 13:55:00,
2013-05-09 09:00:00,57.6,52.8,30.00,North,0,2.0,3.4,84,0.00,,---,0.00,VWS V14.01,2013-05-09 14:00:00,
2013-05-09 09:05:00,57.6,52.8,30.00,NNE,22,2.9,3.6,84,0.00,,---,0.00,VWS V14.01,2013-05-09 14:05:00,
2013-05-09 09:10:00,57.6,53.1,30.03,NNE,22,1.6,2.2,85,0.00,,---,0.00,VWS V14.01,2013-05-09 14:10:00,
2013-05-09 09:15:00,57.6,53.1,30.03,NW,315,1.3,3.1,85,0.00,,---,0.00,VWS V14.01,2013-05-09 14:15:00,
2013-05-09 09:20:00,57.6,53.1,30.03,ESE,112,2.5,3.8,85,0.00,,---,0.00,VWS V14.01,2013-05-09 14:20:00,
2013-05-09 09:25:00,57.4,52.9,30.03,NE,45,1.6,3.6,85,0.00,,---,0.00,VWS V14.01,2013-05-09 14:25:00,
2013-05-09 09:30:00,57.4,53.2,30.03,East,90,4.7,5.6,86,0.00,,---,0.00,VWS V14.01,2013-05-09 14:30:00,
2013-05-09 09:35:00,57.4,53.2,30.03,NNE,22,1.6,3.6,86,0.00,,---,0.00,VWS V14.01,2013-05-09 14:35:00,
2013-05-09 09:40:00,57.4,53.2,30.03,NE,45,2.7,4.3,86,0.00,,---,0.00,VWS V14.01,2013-05-09 14:40:00,
2013-05-09 09:45:00,57.4,53.5,30.03,NE,45,3.1,7.8,87,0.00,,---,0.00,VWS V14.01,2013-05-09 14:45:00,
2013-05-09 09:50:00,57.4,53.5,30.03,NE,45,2.9,3.8,87,0.00,,---,0.00,VWS V14.01,2013-05-09 14:50:00,
2013-05-09 09:55:00,57.2,53.4,30.03,ENE,68,2.2,3.6,87,0.00,,---,0.00,VWS V14.01,2013-05-09 14:55:00,
2013-05-09 10:00:00,57.2,53.4,30.03,NNW,338,2.5,3.6,87,0.00,,---,0.00,VWS V14.01,2013-05-09 15:00:00,
2013-05-09 10:05:00,57.2,53.4,30.03,NE,45,1.6,2.9,87,0.00,,---,0.00,VWS V14.01,2013-05-09 15:05:00,
2013-05-09 10:11:00,57.2,53.7,30.03,NE,45,1.6,2.9,88,0.00,,---,0.00,VWS V14.01,2013-05-09 15:11:00,
2013-05-09 10:16:00,57.4,53.9,30.03,North,0,2.5,4.3,88,0.00,,---,0.00,VWS V14.01,2013-05-09 15:16:00,
2013-05-09 10:21:00,57.4,53.9,30.03,NNW,338,4.7,4.7,88,0.00,,---,0.00,VWS V14.01,2013-05-09 15:21:00,
2013-05-09 10:26:00,57.4,53.9,30.03,ENE,68,2.9,2.9,88,0.00,,---,0.00,VWS V14.01,2013-05-09 15:26:00,
2013-05-09 10:32:00,57.4,53.9,30.03,NNE,22,0.0,2.0,88,0.00,,---,0.00,VWS V14.01,2013-05-09 15:32:00,
2013-05-09 10:37:00,57.4,53.9,30.03,ENE,68,1.3,3.8,88,0.00,,---,0.00,VWS V14.01,2013-05-09 15:37:00,
2013-05-09 10:42:00,57.4,53.9,30.03,ENE,68,2.7,3.4,88,0.00,,---,0.00,VWS V14.01,2013-05-09 15:42:00,
2013-05-09 10:47:00,57.4,53.9,30.03,NE,45,2.7,2.9,88,0.00,,---,0.00,VWS V14.01,2013-05-09 15:47:00,
2013-05-09 10:52:00,57.6,54.0,30.03,NW,315,3.6,4.3,88,0.00,,---,0.00,VWS V14.01,2013-05-09 15:52:00,
2013-05-09 10:57:00,57.6,54.0,30.03,NE,45,2.0,2.9,88,0.00,,---,0.00,VWS V14.01,2013-05-09 15:57:00,
2013-05-09 11:02:00,57.6,53.7,30.03,ENE,68,3.4,3.4,87,0.00,,---,0.00,VWS V14.01,2013-05-09 16:02:00,
2013-05-09 11:07:00,57.7,53.9,30.03,NE,45,4.7,4.7,87,0.00,,---,0.00,VWS V14.01,2013-05-09 16:07:00,
2013-05-09 11:12:00,57.7,53.6,30.03,ENE,68,3.6,4.3,86,0.00,,---,0.00,VWS V14.01,2013-05-09 16:12:00,
2013-05-09 11:17:00,57.7,53.3,30.03,NE,45,2.2,3.6,85,0.00,,---,0.00,VWS V14.01,2013-05-09 16:17:00,
2013-05-09 11:22:00,57.9,53.4,30.03,North,0,1.3,2.9,85,0.00,,---,0.00,VWS V14.01,2013-05-09 16:22:00,
2013-05-09 11:27:00,57.9,53.4,30.03,North,0,2.0,3.4,85,0.00,,---,0.00,VWS V14.01,2013-05-09 16:27:00,
2013-05-09 11:32:00,57.9,53.4,30.03,NW,315,2.9,3.8,85,0.00,,---,0.00,VWS V14.01,2013-05-09 16:32:00,
2013-05-09 11:37:00,57.7,53.0,30.03,North,0,4.5,4.5,84,0.00,,---,0.00,VWS V14.01,2013-05-09 16:37:00,
2013-05-09 11:42:00,57.6,52.8,30.06,NW,315,3.1,3.1,84,0.00,,---,0.00,VWS V14.01,2013-05-09 16:42:00,
2013-05-09 11:47:00,57.6,53.1,30.06,NE,45,2.7,2.9,85,0.00,,---,0.00,VWS V14.01,2013-05-09 16:47:00,
2013-05-09 11:52:00,57.2,52.7,30.06,NW,315,5.4,5.4,85,0.00,,---,0.00,VWS V14.01,2013-05-09 16:52:00,
2013-05-09 11:57:00,57.0,52.6,30.06,NE,45,3.8,4.7,85,0.00,,---,0.00,VWS V14.01,2013-05-09 16:57:00,
2013-05-09 12:02:00,56.7,52.2,30.06,NE,45,3.8,7.4,85,0.00,,---,0.00,VWS V14.01,2013-05-09 17:02:00,
2013-05-09 12:07:00,56.7,52.2,30.06,NNE,22,2.5,3.6,85,0.00,,---,0.00,VWS V14.01,2013-05-09 17:07:00,
2013-05-09 12:12:00,56.3,51.9,30.06,NNE,22,4.3,5.8,85,0.00,,---,0.00,VWS V14.01,2013-05-09 17:12:00,
2013-05-09 12:17:00,56.1,52.0,30.06,NW,315,2.7,4.5,86,0.00,,---,0.00,VWS V14.01,2013-05-09 17:17:00,
2013-05-09 12:22:00,55.9,52.1,30.06,NW,315,6.0,7.4,87,0.00,,---,0.00,VWS V14.01,2013-05-09 17:22:00,
2013-05-09 12:27:00,55.8,52.0,30.06,NNE,22,6.3,6.3,87,0.00,,---,0.00,VWS V14.01,2013-05-09 17:27:00,
2013-05-09 12:32:00,55.6,51.8,30.06,NNW,338,3.1,5.6,87,0.00,,---,0.00,VWS V14.01,2013-05-09 17:32:00,
2013-05-09 12:37:00,55.4,51.9,30.06,NW,315,6.0,6.0,88,0.00,,---,0.00,VWS V14.01,2013-05-09 17:37:00,
2013-05-09 12:42:00,55.2,52.0,30.06,NW,315,2.2,5.8,89,0.00,,---,0.00,VWS V14.01,2013-05-09 17:42:00,
2013-05-09 12:48:00,55.0,51.9,30.06,NNE,22,3.8,4.3,89,0.00,,---,0.00,VWS V14.01,2013-05-09 17:48:00,
2013-05-09 12:53:00,54.7,51.5,30.06,ENE,68,3.6,8.7,89,0.00,,---,0.00,VWS V14.01,2013-05-09 17:53:00,
2013-05-09 12:58:00,54.5,51.3,30.06,East,90,3.8,5.8,89,0.00,,---,0.00,VWS V14.01,2013-05-09 17:58:00,
2013-05-09 13:03:00,54.1,51.0,30.06,NE,45,3.8,5.6,89,0.00,,---,0.00,VWS V14.01,2013-05-09 18:03:00,
2013-05-09 13:08:00,54.0,50.8,30.06,NNE,22,2.0,4.0,89,0.00,,---,0.00,VWS V14.01,2013-05-09 18:08:00,
2013-05-09 13:13:00,53.8,50.6,30.06,NNE,22,3.1,3.1,89,0.00,,---,0.00,VWS V14.01,2013-05-09 18:13:00,
2013-05-09 13:18:00,53.6,50.4,30.06,NE,45,2.5,4.0,89,0.00,,---,0.00,VWS V14.01,2013-05-09 18:18:00,
2013-05-09 13:23:00,53.6,50.7,30.06,North,0,3.1,4.0,90,0.00,,---,0.00,VWS V14.01,2013-05-09 18:23:00,
2013-05-09 13:28:00,53.2,50.4,30.06,NE,45,5.6,5.6,90,0.00,,---,0.00,VWS V14.01,2013-05-09 18:28:00,
2013-05-09 13:33:00,52.5,49.1,30.06,NE,45,4.3,6.3,88,0.00,,---,0.00,VWS V14.01,2013-05-09 18:33:00,
2013-05-09 13:38:00,52.3,48.9,30.06,ENE,68,3.6,4.0,88,0.00,,---,0.00,VWS V14.01,2013-05-09 18:38:00,
2013-05-09 13:43:00,52.2,49.0,30.06,NE,45,5.8,5.8,89,0.00,,---,0.00,VWS V14.01,2013-05-09 18:43:00,
2013-05-09 13:48:00,52.2,49.3,30.06,ENE,68,3.6,5.6,90,0.00,,---,0.00,VWS V14.01,2013-05-09 18:48:00,
2013-05-09 13:53:00,51.8,48.7,30.06,NNE,22,4.0,6.3,89,0.00,,---,0.00,VWS V14.01,2013-05-09 18:53:00,
2013-05-09 13:58:00,51.4,48.3,30.06,North,0,3.1,4.3,89,0.00,,---,0.00,VWS V14.01,2013-05-09 18:58:00,
2013-05-09 14:03:00,51.1,47.7,30.06,East,90,1.6,5.4,88,0.00,,---,0.00,VWS V14.01,2013-05-09 19:03:00,
2013-05-09 14:08:00,50.9,47.8,30.06,NE,45,4.3,7.8,89,0.00,,---,0.00,VWS V14.01,2013-05-09 19:08:00,
2013-05-09 14:13:00,50.9,47.8,30.06,North,0,3.8,8.5,89,0.00,,---,0.00,VWS V14.01,2013-05-09 19:13:00,
2013-05-09 14:18:00,51.1,48.2,30.06,NNE,22,3.4,7.4,90,0.00,,---,0.00,VWS V14.01,2013-05-09 19:18:00,
2013-05-09 14:23:00,50.9,47.8,30.06,North,0,4.3,4.3,89,0.00,,---,0.00,VWS V14.01,2013-05-09 19:23:00,
2013-05-09 14:28:00,50.9,47.8,30.06,NNW,338,2.0,2.0,89,0.00,,---,0.00,VWS V14.01,2013-05-09 19:28:00,
2013-05-09 14:33:00,50.9,47.8,30.06,NNW,338,4.3,4.3,89,0.00,,---,0.00,VWS V14.01,2013-05-09 19:33:00,
2013-05-09 14:38:00,50.7,47.6,30.06,NE,45,3.1,5.4,89,0.00,,---,0.00,VWS V14.01,2013-05-09 19:38:00,
2013-05-09 14:43:00,50.7,47.6,30.06,NNW,338,2.5,3.1,89,0.00,,---,0.00,VWS V14.01,2013-05-09 19:43:00,
2013-05-09 14:48:00,50.9,48.1,30.06,North,0,4.3,4.3,90,0.00,,---,0.00,VWS V14.01,2013-05-09 19:48:00,
2013-05-09 14:53:00,50.7,47.6,30.06,ENE,68,3.8,6.5,89,0.00,,---,0.00,VWS V14.01,2013-05-09 19:53:00,
2013-05-09 14:58:00,50.7,47.3,30.06,ENE,68,2.9,6.0,88,0.00,,---,0.00,VWS V14.01,2013-05-09 19:58:00,
2013-05-09 15:03:00,50.5,47.1,30.06,ENE,68,10.3,10.3,88,0.00,,---,0.00,VWS V14.01,2013-05-09 20:03:00,
2013-05-09 15:08:00,50.5,47.1,30.06,WNW,292,2.9,5.4,88,0.00,,---,0.00,VWS V14.01,2013-05-09 20:08:00,
2013-05-09 15:13:00,50.5,47.1,30.06,North,0,2.9,4.0,88,0.00,,---,0.00,VWS V14.01,2013-05-09 20:13:00,
2013-05-09 15:18:00,50.2,46.5,30.06,NE,45,5.6,7.2,87,0.00,,---,0.00,VWS V14.01,2013-05-09 20:18:00,
2013-05-09 15:23:00,50.0,46.3,30.06,ENE,68,4.7,4.9,87,0.00,,---,0.00,VWS V14.01,2013-05-09 20:23:00,
2013-05-09 15:28:00,49.8,46.1,30.06,ENE,68,2.5,6.0,87,0.00,,---,0.00,VWS V14.01,2013-05-09 20:28:00,
2013-05-09 15:33:00,49.6,45.6,30.06,NW,315,6.3,6.5,86,0.00,,---,0.00,VWS V14.01,2013-05-09 20:33:00,
2013-05-09 15:38:00,49.5,45.5,30.06,North,0,3.1,4.9,86,0.00,,---,0.00,VWS V14.01,2013-05-09 20:38:00,
2013-05-09 15:43:00,49.3,45.0,30.06,NE,45,4.9,5.8,85,0.00,,---,0.00,VWS V14.01,2013-05-09 20:43:00,
2013-05-09 15:48:00,48.9,44.3,30.06,ENE,68,5.4,5.4,84,0.00,,---,0.00,VWS V14.01,2013-05-09 20:48:00,
2013-05-09 15:53:00,48.9,44.6,30.06,ENE,68,2.7,3.8,85,0.00,,---,0.00,VWS V14.01,2013-05-09 20:53:00,
2013-05-09 15:58:00,48.9,44.6,30.06,NE,45,5.4,5.4,85,0.00,,---,0.00,VWS V14.01,2013-05-09 20:58:00,
2013-05-09 16:03:00,48.7,44.1,30.06,North,0,3.4,6.0,84,0.00,,---,0.00,VWS V14.01,2013-05-09 21:03:00,
2013-05-09 16:08:00,48.7,44.4,30.06,East,90,4.7,5.8,85,0.00,,---,0.00,VWS V14.01,2013-05-09 21:08:00,
2013-05-09 16:13:00,48.4,43.8,30.06,NNE,22,3.6,5.6,84,0.00,,---,0.00,VWS V14.01,2013-05-09 21:13:00,
2013-05-09 16:18:00,48.0,43.4,30.06,ENE,68,5.8,8.7,84,0.00,,---,0.00,VWS V14.01,2013-05-09 21:18:00,
2013-05-09 16:23:00,48.2,43.6,30.06,East,90,2.9,5.4,84,0.00,,---,0.00,VWS V14.01,2013-05-09 21:23:00,
2013-05-09 16:29:00,48.2,43.6,30.06,NE,45,3.6,6.3,84,0.00,,---,0.00,VWS V14.01,2013-05-09 21:29:00,
2013-05-09 16:34:00,48.2,43.6,30.06,North,0,2.9,4.7,84,0.00,,---,0.00,VWS V14.01,2013-05-09 21:34:00,
2013-05-09 16:39:00,48.4,43.8,30.06,NNE,22,9.8,9.8,84,0.00,,---,0.00,VWS V14.01,2013-05-09 21:39:00,
2013-05-09 16:44:00,48.2,43.3,30.06,NNE,22,2.0,6.5,83,0.00,,---,0.00,VWS V14.01,2013-05-09 21:44:00,
2013-05-09 16:49:00,48.4,43.5,30.06,NNE,22,7.2,7.2,83,0.00,,---,0.00,VWS V14.01,2013-05-09 21:49:00,
2013-05-09 16:54:00,48.0,42.8,30.06,NNW,338,3.8,7.2,82,0.00,,---,0.00,VWS V14.01,2013-05-09 21:54:00,
2013-05-09 16:59:00,47.8,42.3,30.09,North,0,6.5,6.5,81,0.00,,---,0.00,VWS V14.01,2013-05-09 21:59:00,
2013-05-09 17:04:00,47.8,42.0,30.09,ENE,68,4.3,6.5,80,0.00,,---,0.00,VWS V14.01,2013-05-09 22:04:00,
2013-05-09 17:09:00,47.8,42.0,30.09,NNE,22,7.6,7.6,80,0.00,,---,0.00,VWS V14.01,2013-05-09 22:09:00,
2013-05-09 17:14:00,47.8,42.0,30.06,ENE,68,3.4,4.3,80,0.00,,---,0.00,VWS V14.01,2013-05-09 22:14:00,
2013-05-09 17:19:00,47.8,42.0,30.06,NNW,338,4.3,4.3,80,0.00,,---,0.00,VWS V14.01,2013-05-09 22:19:00,
2013-05-09 17:24:00,48.0,42.5,30.06,NW,315,3.1,7.8,81,0.00,,---,0.00,VWS V14.01,2013-05-09 22:24:00,
2013-05-09 17:29:00,47.8,42.0,30.06,North,0,4.9,9.8,80,0.00,,---,0.00,VWS V14.01,2013-05-09 22:29:00,
2013-05-09 17:35:00,47.8,42.0,30.06,NNE,22,4.0,8.7,80,0.00,,---,0.00,VWS V14.01,2013-05-09 22:35:00,
2013-05-09 17:41:00,47.7,41.5,30.06,South,180,2.0,8.1,79,0.00,,---,0.00,VWS V14.01,2013-05-09 22:41:00,
2013-05-09 17:46:00,47.7,41.5,30.09,South,180,2.5,3.4,79,0.00,,---,0.00,VWS V14.01,2013-05-09 22:46:00,
2013-05-09 17:51:00,47.7,41.5,30.09,North,0,3.8,5.6,79,0.00,,---,0.00,VWS V14.01,2013-05-09 22:51:00,
2013-05-09 17:57:00,47.7,41.5,30.09,ENE,68,4.9,6.7,79,0.00,,---,0.00,VWS V14.01,2013-05-09 22:57:00,
2013-05-09 18:02:00,47.7,41.2,30.09,North,0,6.3,6.3,78,0.00,,---,0.00,VWS V14.01,2013-05-09 23:02:00,
2013-05-09 18:07:00,47.5,41.0,30.09,NNE,22,4.9,5.8,78,0.00,,---,0.00,VWS V14.01,2013-05-09 23:07:00,
2013-05-09 18:12:00,47.7,41.2,30.09,NE,45,3.4,5.8,78,0.00,,---,0.00,VWS V14.01,2013-05-09 23:12:00,
2013-05-09 18:18:00,47.7,40.8,30.09,NE,45,5.4,5.4,77,0.00,,---,0.00,VWS V14.01,2013-05-09 23:18:00,
2013-05-09 18:23:00,47.7,40.8,30.09,NE,45,3.1,7.6,77,0.00,,---,0.00,VWS V14.01,2013-05-09 23:23:00,
2013-05-09 18:28:00,47.7,40.8,30.09,ENE,68,6.0,7.2,77,0.00,,---,0.00,VWS V14.01,2013-05-09 23:28:00,
2013-05-09 18:33:00,47.5,40.3,30.09,NW,315,4.3,7.8,76,0.00,,---,0.00,VWS V14.01,2013-05-09 23:33:00,
2013-05-09 18:39:00,47.7,40.5,30.09,ENE,68,3.8,7.6,76,0.00,,---,0.00,VWS V14.01,2013-05-09 23:39:00,
2013-05-09 18:45:00,47.7,40.1,30.09,ESE,112,3.1,3.1,75,0.00,,---,0.00,VWS V14.01,2013-05-09 23:45:00,
2013-05-09 18:50:00,47.7,39.8,30.09,SE,135,4.3,9.4,74,0.00,,---,0.00,VWS V14.01,2013-05-09 23:50:00,
2013-05-09 18:55:00,47.5,39.6,30.09,ENE,68,3.4,4.3,74,0.00,,---,0.00,VWS V14.01,2013-05-09 23:55:00,
2013-05-09 19:00:00,47.7,39.4,30.09,NNE,22,2.0,3.6,73,0.00,,---,0.00,VWS V14.01,2013-05-10 00:00:00,
2013-05-09 19:05:00,47.5,38.9,30.09,NNE,22,4.7,7.6,72,0.00,,---,0.00,VWS V14.01,2013-05-10 00:05:00,
2013-05-09 19:10:00,47.5,38.6,30.09,WNW,292,2.7,5.4,71,0.00,,---,0.00,VWS V14.01,2013-05-10 00:10:00,
2013-05-09 19:16:00,47.3,38.4,30.09,NE,45,6.0,11.9,71,0.00,,---,0.00,VWS V14.01,2013-05-10 00:16:00,
2013-05-09 19:21:00,47.3,38.7,30.09,NNW,338,2.9,4.7,72,0.00,,---,0.00,VWS V14.01,2013-05-10 00:21:00,
2013-05-09 19:27:00,47.3,38.7,30.09,ENE,68,5.4,6.3,72,0.00,,---,0.00,VWS V14.01,2013-05-10 00:27:00,
2013-05-09 19:32:00,47.1,38.6,30.09,ENE,68,3.1,4.7,72,0.00,,---,0.00,VWS V14.01,2013-05-10 00:32:00,
2013-05-09 19:38:00,47.1,38.6,30.09,NNE,22,2.9,6.9,72,0.00,,---,0.00,VWS V14.01,2013-05-10 00:38:00,
2013-05-09 19:43:00,47.1,38.6,30.09,NE,45,4.0,4.7,72,0.00,,---,0.00,VWS V14.01,2013-05-10 00:43:00,
2013-05-09 19:49:00,47.1,38.6,30.09,NE,45,5.8,8.1,72,0.00,,---,0.00,VWS V14.01,2013-05-10 00:49:00,
2013-05-09 19:54:00,46.9,38.0,30.09,NE,45,2.2,4.3,71,0.00,,---,0.00,VWS V14.01,2013-05-10 00:54:00,
2013-05-09 20:00:00,46.9,37.3,30.09,NW,315,7.4,7.4,69,0.00,,---,0.00,VWS V14.01,2013-05-10 01:00:00,
2013-05-09 20:05:00,46.8,37.1,30.09,NE,45,2.5,5.6,69,0.00,,---,0.00,VWS V14.01,2013-05-10 01:05:00,
2013-05-09 20:10:00,46.8,36.8,30.09,NE,45,3.1,7.8,68,0.00,,---,0.00,VWS V14.01,2013-05-10 01:10:00,
2013-05-09 20:15:00,46.6,36.6,30.09,North,0,1.3,2.9,68,0.00,,---,0.00,VWS V14.01,2013-05-10 01:15:00,
2013-05-09 20:20:00,46.6,35.8,30.09,ENE,68,9.2,10.1,66,0.00,,---,0.00,VWS V14.01,2013-05-10 01:20:00,
2013-05-09 20:25:00,46.6,35.8,30.09,NE,45,2.5,3.6,66,0.00,,---,0.00,VWS V14.01,2013-05-10 01:25:00,
2013-05-09 20:31:00,46.4,34.9,30.12,NNE,22,3.6,6.0,64,0.00,,---,0.00,VWS V14.01,2013-05-10 01:31:00,
2013-05-09 20:37:00,46.4,34.9,30.12,NNE,22,4.0,5.4,64,0.00,,---,0.00,VWS V14.01,2013-05-10 01:37:00,
2013-05-09 20:42:00,46.2,33.9,30.09,ENE,68,2.9,4.9,62,0.00,,---,0.00,VWS V14.01,2013-05-10 01:42:00,
2013-05-09 20:48:00,46.2,33.9,30.09,NE,45,8.7,8.7,62,0.00,,---,0.00,VWS V14.01,2013-05-10 01:48:00,
2013-05-09 20:53:00,46.2,33.1,30.09,NE,45,2.7,5.8,60,0.00,,---,0.00,VWS V14.01,2013-05-10 01:53:00,
2013-05-09 20:58:00,46.2,32.3,30.09,NE,45,4.3,6.3,58,0.00,,---,0.00,VWS V14.01,2013-05-10 01:58:00,
2013-05-09 21:03:00,46.0,31.7,30.09,ENE,68,2.7,4.0,57,0.00,,---,0.00,VWS V14.01,2013-05-10 02:03:00,
2013-05-09 21:08:00,46.0,32.1,30.09,ENE,68,3.6,4.0,58,0.00,,---,0.00,VWS V14.01,2013-05-10 02:08:00,
2013-05-09 21:13:00,46.0,31.7,30.12,ENE,68,7.4,7.4,57,0.00,,---,0.00,VWS V14.01,2013-05-10 02:13:00,
2013-05-09 21:19:00,46.0,31.2,30.12,ENE,68,2.9,3.8,56,0.00,,---,0.00,VWS V14.01,2013-05-10 02:19:00,
2013-05-09 21:24:00,46.0,31.2,30.12,NE,45,4.0,5.8,56,0.00,,---,0.00,VWS V14.01,2013-05-10 02:24:00,
2013-05-09 21:30:00,45.9,30.6,30.12,ESE,112,2.9,4.9,55,0.00,,---,0.00,VWS V14.01,2013-05-10 02:30:00,
2013-05-09 21:36:00,45.9,30.2,30.12,NE,45,2.5,4.0,54,0.00,,---,0.00,VWS V14.01,2013-05-10 02:36:00,
2013-05-09 21:41:00,45.7,29.5,30.12,NNW,338,2.5,5.6,53,0.00,,---,0.00,VWS V14.01,2013-05-10 02:41:00,
2013-05-09 21:46:00,45.7,29.1,30.12,WNW,292,2.9,6.3,52,0.00,,---,0.00,VWS V14.01,2013-05-10 02:46:00,
2013-05-09 21:52:00,45.7,29.1,30.12,NNE,22,2.5,3.6,52,0.00,,---,0.00,VWS V14.01,2013-05-10 02:52:00,
2013-05-09 21:57:00,45.7,29.5,30.12,ENE,68,2.0,4.7,53,0.00,,---,0.00,VWS V14.01,2013-05-10 02:57:00,
2013-05-09 22:03:00,45.5,29.4,30.12,NE,45,2.7,3.8,53,0.00,,---,0.00,VWS V14.01,2013-05-10 03:03:00,
2013-05-09 22:08:00,45.5,28.9,30.12,ENE,68,2.9,3.4,52,0.00,,---,0.00,VWS V14.01,2013-05-10 03:08:00,
2013-05-09 22:14:00,45.5,29.4,30.12,NE,45,2.7,4.0,53,0.00,,---,0.00,VWS V14.01,2013-05-10 03:14:00,
2013-05-09 22:20:00,45.5,29.4,30.12,ENE,68,2.5,3.8,53,0.00,,---,0.00,VWS V14.01,2013-05-10 03:20:00,
2013-05-09 22:25:00,45.3,28.8,30.12,NNE,22,2.7,6.3,52,0.00,,---,0.00,VWS V14.01,2013-05-10 03:25:00,
2013-05-09 22:31:00,45.1,28.6,30.12,NE,45,4.0,6.3,52,0.00,,---,0.00,VWS V14.01,2013-05-10 03:31:00,
2013-05-09 22:36:00,45.0,28.4,30.12,ESE,112,2.5,2.5,52,0.00,,---,0.00,VWS V14.01,2013-05-10 03:36:00,
2013-05-09 22:41:00,44.8,28.2,30.12,ENE,68,1.6,2.7,52,0.00,,---,0.00,VWS V14.01,2013-05-10 03:41:00,
2013-05-09 22:46:00,44.6,28.1,30.12,NE,45,2.7,3.6,52,0.00,,---,0.00,VWS V14.01,2013-05-10 03:46:00,
2013-05-09 22:51:00,44.4,27.9,30.12,ENE,68,3.8,3.8,52,0.00,,---,0.00,VWS V14.01,2013-05-10 03:51:00,
2013-05-09 22:56:00,44.2,27.7,30.09,NW,315,2.5,5.8,52,0.00,,---,0.00,VWS V14.01,2013-05-10 03:56:00,
2013-05-09 23:01:00,44.1,27.6,30.09,NNW,338,4.0,4.3,52,0.00,,---,0.00,VWS V14.01,2013-05-10 04:01:00,
2013-05-09 23:02:00,44.1,27.6,30.09,ENE,68,2.7,4.3,52,0.00,,---,0.00,VWS V14.01,2013-05-10 04:02:00,
2013-05-09 23:03:00,44.1,28.0,30.09,NE,45,1.6,3.1,53,0.00,,---,0.00,VWS V14.01,2013-05-10 04:03:00,
2013-05-09 23:04:00,44.1,28.0,30.09,NNW,338,2.0,3.6,53,0.00,,---,0.00,VWS V14.01,2013-05-10 04:04:00,
2013-05-09 23:05:00,44.1,28.0,30.09,NE,45,2.7,2.9,53,0.00,,---,0.00,VWS V14.01,2013-05-10 04:05:00,
2013-05-09 23:10:00,43.9,27.9,30.09,North,0,1.6,3.1,53,0.00,,---,0.00,VWS V14.01,2013-05-10 04:10:00,
2013-05-09 23:16:00,43.7,27.7,30.12,NE,45,2.5,2.9,53,0.00,,---,0.00,VWS V14.01,2013-05-10 04:16:00,
2013-05-09 23:21:00,43.5,27.5,30.12,NNW,338,3.1,3.1,53,0.00,,---,0.00,VWS V14.01,2013-05-10 04:21:00,
2013-05-09 23:26:00,43.5,28.0,30.12,NW,315,3.4,3.4,54,0.00,,---,0.00,VWS V14.01,2013-05-10 04:26:00,
2013-05-09 23:31:00,43.3,27.8,30.12,NNW,338,1.6,2.5,54,0.00,,---,0.00,VWS V14.01,2013-05-10 04:31:00,
2013-05-09 23:36:00,43.3,27.8,30.12,ENE,68,2.7,2.9,54,0.00,,---,0.00,VWS V14.01,2013-05-10 04:36:00,
2013-05-09 23:41:00,43.3,27.8,30.09,ENE,68,3.6,3.6,54,0.00,,---,0.00,VWS V14.01,2013-05-10 04:41:00,
2013-05-09 23:46:00,43.3,27.8,30.09,North,0,1.3,3.8,54,0.00,,---,0.00,VWS V14.01,2013-05-10 04:46:00,
2013-05-09 23:51:00,43.2,27.2,30.09,NE,45,4.0,4.3,53,0.00,,---,0.00,VWS V14.01,2013-05-10 04:51:00,
2013-05-09 23:57:00,43.0,27.0,30.12,NNE,22,2.7,3.6,53,0.00,,---,0.00,VWS V14.01,2013-05-10 04:57:00,